Nederland, TX

5:19 AM CST on January 24, 2017 (GMT -0600)
Southeast Texas Regional

Weather History for KBPT - August, 2013

Change the Weather History Date:

Tuesday, August 13, 2013

  Actual Average Record
Temperature  
Mean Temperature 87 °F 83 °F  
Max Temperature 96 °F 93 °F 103 °F (1962)
Min Temperature 78 °F 74 °F 62 °F (1967)
Degree Days  
Heating Degree Days 0 0  
Month to date heating degree days 0 0  
Since 1 June heating degree days 0 0  
Since 1 July heating degree days 0 0  
Cooling Degree Days 22 18  
Month to date cooling degree days 263 234  
Year to date cooling degree days 1855 1840  
Since 1 June cooling degree days 1368 1274  
Growing Degree Days 37 (Base 50)    
Moisture  
Dew Point 75 °F    
Average Humidity 68    
Maximum Humidity 91    
Minimum Humidity 45    
Precipitation  
Precipitation 0.00 in 0.15 in 2.88 in (1930)
Month to date precipitation 0.04 2.17  
Year to date precipitation 34.29 36.02  
Snow  
Snow 0.00 in 0.00 in 0.00 in ()
Month to date snowfall 0.0 0.0  
Since 1 June snowfall 0.0 0.0  
Since 1 July snowfall 0.0 0.0  
Snow Depth 0.00 in    
Sea Level Pressure  
Sea Level Pressure 29.99 in    
Wind  
Wind Speed 7 mph (SW)    
Max Wind Speed 15 mph    
Max Gust Speed 20 mph    
Visibility 10 miles    
Events      
T = Trace of Precipitation, MM = Missing Value Source: NWS Daily Summary

Daily Weather History Graph

Daily Weather History Graph

Search for Another Location

Airport or City:

Trip Planner

Search our weather history database for the weather conditions in past years. The results will help you decide how hot, cold, wet, or windy it might be!

Date:

Astronomy

Aug. 13, 2013 Rise Set
Actual Time 6:42 AM CDT 7:58 PM CDT
Civil Twilight 6:17 AM CDT 8:23 PM CDT
Nautical Twilight 5:47 AM CDT 8:53 PM CDT
Astronomical Twilight 5:16 AM CDT 9:24 PM CDT
Moon 1:03 PM CDT (8/13) No Moon Set
Length of Visible Light 14h 06m
Length of Day
13h 16m
Waxing Crescent, 42% of the Moon is Illuminated
Aug 13
Waxing Crescent
Aug 14
First Quarter
Aug 20
Full
Aug 28
Last Quarter
Sep 5
New

Hourly Weather History & Observations

Time (CDT) Temp. Heat Index Dew Point Humidity Pressure Visibility Wind Dir Wind Speed Gust Speed Precip Events Conditions
12:53 AM 78.1 °F - 75.0 °F 90% 30.01 in 10.0 mi Calm Calm - N/A   Clear
1:53 AM 79.0 °F - 75.9 °F 90% 30.00 in 10.0 mi South 4.6 mph - N/A   Clear
2:53 AM 80.1 °F 85.4 °F 75.9 °F 87% 29.99 in 10.0 mi South 5.8 mph - N/A   Clear
3:53 AM 80.1 °F 85.4 °F 75.9 °F 87% 29.99 in 10.0 mi SSW 4.6 mph - N/A   Clear
4:53 AM 79.0 °F - 75.9 °F 90% 29.99 in 10.0 mi Calm Calm - N/A   Clear
5:53 AM 78.1 °F - 75.9 °F 93% 30.00 in 10.0 mi Calm Calm - N/A   Clear
6:53 AM 78.1 °F - 75.9 °F 93% 30.01 in 9.0 mi WSW 3.5 mph - N/A   Clear
7:53 AM 81.0 °F 87.9 °F 77.0 °F 88% 30.01 in 10.0 mi WSW 3.5 mph - N/A   Partly Cloudy
8:53 AM 86.0 °F 96.9 °F 77.0 °F 74% 30.04 in 10.0 mi WSW 6.9 mph - N/A   Clear
9:28 AM 87.8 °F 99.7 °F 77.0 °F 70% 30.04 in 10.0 mi West 8.1 mph - N/A   Mostly Cloudy
9:50 AM 87.8 °F 97.6 °F 75.2 °F 66% 30.04 in 10.0 mi WSW 9.2 mph - N/A   Scattered Clouds
9:53 AM 88.0 °F 100.2 °F 77.0 °F 70% 30.04 in 10.0 mi West 8.1 mph - N/A   Scattered Clouds
10:53 AM 90.0 °F 100.2 °F 75.0 °F 61% 30.05 in 10.0 mi West 9.2 mph - N/A   Partly Cloudy
11:53 AM 91.9 °F 100.7 °F 73.0 °F 54% 30.04 in 10.0 mi SW 9.2 mph - N/A   Scattered Clouds
12:53 PM 93.9 °F 103.4 °F 73.0 °F 51% 30.02 in 10.0 mi SW 10.4 mph - N/A   Scattered Clouds
1:53 PM 93.9 °F 102.1 °F 72.0 °F 49% 30.00 in 10.0 mi West 10.4 mph 16.1 mph N/A   Partly Cloudy
2:53 PM 96.1 °F 104.9 °F 72.0 °F 46% 29.96 in 10.0 mi West 9.2 mph - N/A   Scattered Clouds
3:53 PM 95.0 °F 104.5 °F 73.0 °F 49% 29.94 in 10.0 mi SW 8.1 mph - N/A   Scattered Clouds
4:53 PM 91.9 °F 103.2 °F 75.0 °F 58% 29.92 in 10.0 mi SW 6.9 mph - N/A   Partly Cloudy
5:53 PM 91.9 °F 103.9 °F 75.9 °F 59% 29.92 in 10.0 mi SSW 10.4 mph 19.6 mph N/A   Clear
6:53 PM 89.1 °F 98.0 °F 73.9 °F 61% 29.93 in 10.0 mi South 9.2 mph - N/A   Clear
7:53 PM 84.9 °F 93.3 °F 75.0 °F 72% 29.94 in 10.0 mi South 10.4 mph - N/A   Clear
8:53 PM 82.0 °F 88.6 °F 75.0 °F 79% 29.93 in 10.0 mi South 6.9 mph - N/A   Clear
9:53 PM 81.0 °F 87.3 °F 75.9 °F 85% 29.95 in 10.0 mi SSW 5.8 mph - N/A   Clear
10:53 PM 81.0 °F 87.3 °F 75.9 °F 85% 29.95 in 10.0 mi SSW 5.8 mph - N/A   Clear
11:53 PM 81.0 °F 87.3 °F 75.9 °F 85% 29.94 in 10.0 mi SW 5.8 mph - N/A   Clear